Regional Weather Roundup
Issued by NWS Burlington, VT

Home | Current Version | Previous Version | Text Only | Print | Product List | Glossary On
Versions: 1 2 3 4 5 6 7 8 9 10 11 12 13 14 15 16 17 18 19 20 21 22 23 24 25 26 27 28 29 30 31 32 33 34 35 36 37 38 39 40 41 42 43 44 45 46 47 48 49 50
000
ASUS41 KBTV 211110
RWRBTV
VERMONT REGIONAL WEATHER ROUNDUP
NATIONAL WEATHER SERVICE BURLINGTON VT
700 AM EDT FRI JUL 21 2017

NOTE: "FAIR" INDICATES FEW OR NO CLOUDS BELOW 12,000 FEET WITH NO
SIGNIFICANT WEATHER AND/OR OBSTRUCTIONS TO VISIBILITY.

* THESE REPORTS ARE NOT UNDER NWS QUALITY CONTROL AND/OR DO NOT
  REPORT WEATHER SUCH AS PRECIPITATION AND FOG.

VTZ001>019-211200-
_____VERMONT_____


CITY           SKY/WX    TMP DP  RH WIND       PRES   REMARKS
BURLINGTON     MOSUNNY   63  58  83 CALM      29.87S
MONTPELIER     FOG       55  55 100 CALM      29.93S VSB<1/4
MORRISVILLE    FOG       56  56 100 CALM      29.90S VSB<1/4
ST. JOHNSBURY*   N/A     58  58 100 MISG      29.87S
LYNDONVILLE*   FOG       57  57  99 CALM      29.91S VSB<1/4
MIDDLEBURY*    FAIR      61  58  90 CALM      29.89R
RUTLAND*       SUNNY     59  57  93 SE3       29.92R
SPRINGFIELD    FOG       60  59  96 CALM      29.90R VSB 1/4
HIGHGATE*      FAIR      64  59  83 S5        29.85R
NEWPORT*       FAIR      59  57  93 CALM      29.88F
BENNINGTON     SUNNY     60  58  92 CALM      29.92R
SUTTON*          N/A     59 N/A N/A MISG        N/A

_____LAKE CHAMPLAIN_____


CITY           SKY/WX    TMP DP  RH WIND       PRES   REMARKS
BURTON ISLAND*   N/A    N/A N/A N/A SW8         N/A
COLCHESTER RF*   N/A     68  63  83 S14         N/A
DIAMOND ISL*     N/A     64  61  88 SE5         N/A

$$

NYZ007-026>031-035-052-083-087-211200-
_____NORTHERN NEW YORK_____


CITY           SKY/WX    TMP DP  RH WIND       PRES   REMARKS
PLATTSBURGH    SUNNY     66  59  78 SE3       29.85S
SARANAC LAKE   MOSUNNY   55  54  96 CALM      29.92S
MASSENA        SUNNY     65  62  90 SW9       29.86F
OGDENSBURG*    FAIR      64  63  97 S3        29.86S
POTSDAM*       SUNNY     66  66 100 SW6       29.88S
WATERTOWN      CLOUDY    66  65  96 S7        29.89R
FT DRUM        PTSUNNY   65  63  92 S6        29.89R
ALBANY         PTSUNNY   68  63  84 NE5       29.90R
GLENS FALLS    SUNNY     62  59  90 CALM      29.89F

$$
NHZ002-005-011-211200-
_____NEW HAMPSHIRE_____


CITY           SKY/WX    TMP DP  RH WIND       PRES   REMARKS
LEBANON        FOG       59  59 100 CALM      29.89S VSB 1/4
KEENE          FOG       60  60 100 CALM      29.90R VSB 1/4
MT WASHINGTON  FOG       50  50 100 NW26        N/A  VSB 1/16
PLYMOUTH       FAIR      58  56  96 CALM      29.89R
WHITEFIELD     SUNNY     59  56  89 CALM      29.89S

$$

_____REGIONAL QUEBEC LOCATIONS_____


CITY           SKY/WX    TMP DP  RH WIND       PRES   REMARKS
MONTREAL       MOSUNNY   66  61  82 SW12      29.83R
QUEBEC CITY    FOG       64  63  94 SW12      29.79R VSB 1/2
SHERBROOKE     SUNNY     63  59  88 VRB2      29.85S

_____REGIONAL ONTARIO LOCATIONS_____


CITY           SKY/WX    TMP DP  RH WIND       PRES   REMARKS
OTTAWA         MOSUNNY   63  63 100 SW6       29.84S

______KEY______
VSB  - VISIBILITY IN MILES
WCI  - WIND CHILL INDEX
HX   - HEAT INDEX
$$
NNNN




USA.gov is the U.S. government's official web portal to all federal, state and local government web resources and services.